Voltar ao catálogo

COSMOS 1723

AtivoMilitarLEO
NORAD 16456·PAYLOAD·🇷🇺 Russia

Lançado Jan 9, 1986 de Plesetsk Cosmodrome

Loading…

Próximas Passagens (próximas 24 horas)

TLE

AtualizadoSource: Space-Track

Época: Sep 14, 2026, 14:10 UTC

1 16456U 86002H   26257.59096410  .00000002  00000-0  11367-3 0  9997
2 16456  73.9902 312.5406 0053179 279.3039 249.8346 12.55806453864860

Acompanhe COSMOS 1723 em tempo real com AllMySat

Download on the App Store